| time (UTC) | temp F | wind direction | speed MPH | gust MPH | rain 1hr in | rain 24hr in | rain mn in | humidity % | barometer mb |
| 20260509175016 | 60 | 90 | 5.0 | 9.0 | 0.00 | 0.00 | 0.00 | 37 | |
| 20260509174036 | 60 | 113 | 7.0 | 12.0 | 0.00 | 0.00 | 0.00 | 36 | |
| 20260509173017 | 60 | 113 | 7.0 | 12.0 | 0.00 | 0.00 | 0.00 | 37 | |
| 20260509172016 | 60 | 90 | 6.0 | 18.0 | 0.00 | 0.00 | 0.00 | 38 | |
| 20260509171016 | 59 | 113 | 6.0 | 12.0 | 0.00 | 0.00 | 0.00 | 37 | |
| 20260509170016 | 60 | 113 | 6.0 | 12.0 | 0.00 | 0.00 | 0.00 | 37 | |
| 20260509165036 | 60 | 113 | 6.0 | 11.0 | 0.00 | 0.00 | 0.00 | 37 | |
| 20260509164017 | 60 | 113 | 7.0 | 15.0 | 0.00 | 0.00 | 0.00 | 35 | |
| 20260509163016 | 59 | 90 | 5.0 | 10.0 | 0.00 | 0.00 | 0.00 | 37 | |
| 20260509162017 | 59 | 90 | 7.0 | 14.0 | 0.00 | 0.00 | 0.00 | 37 | |
| 20260509161016 | 59 | 90 | 7.0 | 14.0 | 0.00 | 0.00 | 0.00 | 39 | |
| 20260509160016 | 59 | 113 | 7.0 | 12.0 | 0.00 | 0.00 | 0.00 | 40 | |
| 20260509155016 | 59 | 90 | 7.0 | 12.0 | 0.00 | 0.00 | 0.00 | 43 | |
| 20260509154016 | 58 | 90 | 6.0 | 13.0 | 0.00 | 0.00 | 0.00 | 43 | |
| 20260509153016 | 58 | 90 | 6.0 | 16.0 | 0.00 | 0.00 | 0.00 | 45 | |
| 20260509152016 | 58 | 113 | 6.0 | 12.0 | 0.00 | 0.00 | 0.00 | 45 | |
| 20260509151015 | 57 | 90 | 4.0 | 9.0 | 0.00 | 0.00 | 0.00 | 49 | |
| 20260509150016 | 57 | 113 | 5.0 | 9.0 | 0.00 | 0.00 | 0.00 | 51 | |
| 20260509145016 | 56 | 113 | 5.0 | 11.0 | 0.00 | 0.00 | 0.00 | 53 | |
| 20260509144057 | 57 | 90 | 5.0 | 10.0 | 0.00 | 0.00 | 0.00 | 54 | |
| 20260509143015 | 56 | 113 | 4.0 | 9.0 | 0.00 | 0.00 | 0.00 | 57 | |
| 20260509142016 | 56 | 90 | 5.0 | 13.0 | 0.00 | 0.00 | 0.00 | 59 | |
| 20260509141016 | 55 | 90 | 5.0 | 12.0 | 0.00 | 0.00 | 0.00 | 62 | |
| 20260509140015 | 54 | 90 | 4.0 | 12.0 | 0.00 | 0.00 | 0.00 | 66 | |
| 20260509135016 | 54 | 113 | 4.0 | 8.0 | 0.00 | 0.00 | 0.00 | 67 | |
| 20260509134017 | 54 | 90 | 5.0 | 10.0 | 0.00 | 0.00 | 0.00 | 67 | |
| 20260509133018 | 54 | 113 | 6.0 | 12.0 | 0.00 | 0.00 | 0.00 | 66 | |
| 20260509132017 | 53 | 68 | 6.0 | 14.0 | 0.00 | 0.00 | 0.00 | 68 | |
| 20260509131018 | 53 | 68 | 4.0 | 10.0 | 0.00 | 0.00 | 0.00 | 69 | |
| 20260509130017 | 53 | 113 | 6.0 | 11.0 | 0.00 | 0.00 | 0.00 | 70 | |
| 20260509125017 | 53 | 90 | 4.0 | 8.0 | 0.00 | 0.00 | 0.00 | 72 | |
| 20260509124017 | 53 | 113 | 6.0 | 9.0 | 0.00 | 0.00 | 0.00 | 72 | |
| 20260509123018 | 53 | 113 | 5.0 | 10.0 | 0.00 | 0.00 | 0.00 | 72 | |
| 20260509122017 | 53 | 90 | 4.0 | 9.0 | 0.00 | 0.00 | 0.00 | 73 | |
| 20260509121017 | 53 | 90 | 5.0 | 11.0 | 0.00 | 0.00 | 0.00 | 74 | |
| 20260509120017 | 53 | 90 | 3.0 | 8.0 | 0.00 | 0.00 | 0.00 | 73 | |
| 20260509115017 | 53 | 90 | 2.0 | 7.0 | 0.00 | 0.00 | 0.00 | 73 | |
| 20260509114038 | 53 | 90 | 2.0 | 4.0 | 0.00 | 0.00 | 0.00 | 73 | |
| 20260509113038 | 53 | 68 | 1.0 | 4.0 | 0.00 | 0.00 | 0.00 | 72 | |
| 20260509112017 | 53 | 68 | 1.0 | 3.0 | 0.00 | 0.00 | 0.00 | 71 | |
| 20260509111037 | 53 | 68 | 1.0 | 8.0 | 0.00 | 0.00 | 0.00 | 71 | |
| 20260509110017 | 53 | 0.0 | 2.0 | 0.00 | 0.00 | 0.00 | 70 | ||
| 20260509105016 | 54 | 0.0 | 3.0 | 0.00 | 0.00 | 0.00 | 69 | ||
| 20260509104016 | 54 | 0.0 | 2.0 | 0.00 | 0.00 | 0.00 | 68 | ||
| 20260509103017 | 54 | 135 | 2.0 | 3.0 | 0.00 | 0.00 | 0.00 | 62 | |
| 20260509102016 | 54 | 0.0 | 1.0 | 0.00 | 0.00 | 0.00 | 60 | ||
| 20260509101037 | 54 | 135 | 1.0 | 2.0 | 0.00 | 0.00 | 0.00 | 59 | |
| 20260509100017 | 54 | 0.0 | 0.0 | 0.00 | 0.00 | 0.00 | 58 | 905.0 | |
| 20260509095016 | 54 | 45 | 1.0 | 3.0 | 0.00 | 0.00 | 0.00 | 57 | 905.0 |
| 20260509094016 | 54 | 113 | 1.0 | 3.0 | 0.00 | 0.00 | 0.00 | 56 | 905.0 |
| 20260509093017 | 54 | 90 | 2.0 | 5.0 | 0.00 | 0.00 | 0.00 | 55 | 905.1 |
| 20260509092016 | 54 | 68 | 1.0 | 3.0 | 0.00 | 0.00 | 0.00 | 54 | 905.1 |
| 20260509091016 | 54 | 68 | 1.0 | 3.0 | 0.00 | 0.00 | 0.00 | 54 | 905.0 |
| 20260509090016 | 53 | 68 | 2.0 | 3.0 | 0.00 | 0.00 | 0.00 | 54 | 905.0 |
| 20260509085017 | 53 | 68 | 1.0 | 3.0 | 0.00 | 0.00 | 0.00 | 55 | 905.0 |
| 20260509084016 | 52 | 90 | 1.0 | 4.0 | 0.00 | 0.00 | 0.00 | 55 | 905.0 |
| 20260509083017 | 51 | 90 | 2.0 | 6.0 | 0.00 | 0.00 | 0.00 | 55 | 904.9 |
| 20260509082037 | 51 | 90 | 1.0 | 4.0 | 0.00 | 0.00 | 0.00 | 58 | 904.9 |
| 20260509081016 | 50 | 0.0 | 0.0 | 0.00 | 0.00 | 0.00 | 58 | 904.9 | |
| 20260509080016 | 50 | 0.0 | 0.0 | 0.00 | 0.00 | 0.00 | 58 | 904.9 | |
| 20260509075016 | 50 | 0.0 | 0.0 | 0.00 | 0.00 | 0.00 | 58 | 904.9 | |
| 20260509074017 | 50 | 0.0 | 0.0 | 0.00 | 0.00 | 0.00 | 57 | 904.9 | |
| 20260509073016 | 50 | 0.0 | 0.0 | 0.00 | 0.00 | 0.00 | 55 | 904.9 | |
| 20260509072016 | 50 | 0.0 | 0.0 | 0.00 | 0.00 | 0.00 | 56 | 904.9 | |
| 20260509071016 | 51 | 0.0 | 0.0 | 0.00 | 0.00 | 0.00 | 55 | 904.9 | |
| 20260509070015 | 51 | 0.0 | 0.0 | 0.00 | 0.00 | 0.00 | 54 | 904.9 | |
| 20260509065016 | 51 | 0.0 | 0.0 | 0.00 | 0.00 | 0.00 | 52 | 904.9 | |
| 20260509064016 | 52 | 0.0 | 0.0 | 0.00 | 0.00 | 0.00 | 51 | 904.9 | |
| 20260509063016 | 52 | 0.0 | 0.0 | 0.00 | 0.00 | 0.00 | 50 | 904.9 | |
| 20260509062015 | 53 | 0.0 | 0.0 | 0.00 | 0.00 | 0.00 | 48 | 905.0 | |
| 20260509061015 | 53 | 0.0 | 0.0 | 0.00 | 0.00 | 0.00 | 47 | 905.0 | |
| 20260509060015 | 54 | 0.0 | 0.0 | 0.00 | 0.00 | 0.00 | 46 | 905.0 | |
| 20260509055016 | 55 | 0.0 | 0.0 | 0.00 | 0.00 | 0.00 | 45 | 905.0 | |
| 20260509054015 | 55 | 0.0 | 0.0 | 0.00 | 0.00 | 0.00 | 43 | 905.0 | |
| 20260509053016 | 56 | 0.0 | 0.0 | 0.00 | 0.00 | 0.00 | 43 | 905.0 | |
| 20260509052017 | 57 | 0.0 | 0.0 | 0.00 | 0.00 | 0.00 | 41 | 905.0 | |
| 20260509051017 | 57 | 0.0 | 1.0 | 0.00 | 0.00 | 0.00 | 40 | 905.0 | |
| 20260509050017 | 58 | 0.0 | 0.0 | 0.00 | 0.00 | 0.00 | 40 | 904.9 | |
| 20260509045016 | 59 | 0.0 | 0.0 | 0.00 | 0.00 | 0.00 | 39 | 904.9 | |
| 20260509044016 | 59 | 0.0 | 1.0 | 0.00 | 0.00 | 0.00 | 38 | 904.9 | |
| 20260509043037 | 60 | 0.0 | 1.0 | 0.00 | 0.00 | 0.00 | 37 | 904.9 | |
| 20260509042016 | 61 | 0.0 | 2.0 | 0.00 | 0.00 | 0.00 | 36 | 904.9 | |
| 20260509041016 | 61 | 90 | 1.0 | 3.0 | 0.00 | 0.00 | 0.00 | 34 | 904.9 |
| 20260509040016 | 61 | 90 | 1.0 | 3.0 | 0.00 | 0.00 | 0.00 | 34 | 904.9 |
| 20260509035037 | 62 | 68 | 2.0 | 6.0 | 0.00 | 0.00 | 0.00 | 33 | 904.9 |
| 20260509034016 | 62 | 90 | 2.0 | 7.0 | 0.00 | 0.00 | 0.00 | 33 | 904.9 |
| 20260509033017 | 63 | 90 | 4.0 | 8.0 | 0.00 | 0.00 | 0.00 | 32 | 904.9 |
| 20260509032016 | 63 | 113 | 2.0 | 4.0 | 0.00 | 0.00 | 0.00 | 32 | 904.9 |
| 20260509031016 | 64 | 113 | 2.0 | 6.0 | 0.00 | 0.00 | 0.00 | 32 | 905.0 |
| 20260509030016 | 64 | 90 | 3.0 | 9.0 | 0.00 | 0.00 | 0.00 | 31 | 904.9 |
| 20260509025037 | 65 | 90 | 4.0 | 8.0 | 0.00 | 0.00 | 0.00 | 31 | 904.9 |
| 20260509024016 | 65 | 90 | 4.0 | 10.0 | 0.00 | 0.00 | 0.00 | 31 | 904.9 |
| 20260509023036 | 65 | 113 | 4.0 | 7.0 | 0.00 | 0.00 | 0.00 | 31 | 904.9 |
| 20260509022016 | 66 | 90 | 4.0 | 10.0 | 0.00 | 0.00 | 0.00 | 30 | 904.9 |
| 20260509021037 | 66 | 90 | 3.0 | 7.0 | 0.00 | 0.00 | 0.00 | 30 | 904.9 |
| 20260509020016 | 66 | 113 | 3.0 | 10.0 | 0.00 | 0.00 | 0.00 | 29 | 904.9 |
| 20260509015016 | 67 | 68 | 2.0 | 7.0 | 0.00 | 0.00 | 0.00 | 28 | 904.9 |
| 20260509014016 | 67 | 23 | 1.0 | 3.0 | 0.00 | 0.00 | 0.00 | 28 | 904.9 |
| 20260509013016 | 68 | 68 | 2.0 | 6.0 | 0.00 | 0.00 | 0.00 | 28 | 904.8 |
| 20260509012016 | 69 | 45 | 2.0 | 8.0 | 0.00 | 0.00 | 0.00 | 26 | 904.8 |
| 20260509011016 | 69 | 90 | 2.0 | 6.0 | 0.00 | 0.00 | 0.00 | 25 | 904.8 |
| 20260509010015 | 69 | 90 | 4.0 | 9.0 | 0.00 | 0.00 | 0.00 | 25 | 904.6 |
| 20260509005016 | 70 | 45 | 3.0 | 6.0 | 0.00 | 0.00 | 0.00 | 25 | 904.7 |
| 20260509004016 | 70 | 68 | 2.0 | 7.0 | 0.00 | 0.00 | 0.00 | 25 | 904.7 |
| 20260509003015 | 71 | 90 | 4.0 | 10.0 | 0.00 | 0.00 | 0.00 | 24 | 904.6 |
| 20260509002015 | 71 | 45 | 3.0 | 9.0 | 0.00 | 0.00 | 0.00 | 24 | 904.6 |
| 20260509001016 | 71 | 23 | 4.0 | 10.0 | 0.00 | 0.00 | 0.00 | 24 | 904.6 |
| 20260509000036 | 72 | 68 | 6.0 | 14.0 | 0.00 | 0.00 | 0.00 | 23 | 904.7 |
| 20260508235015 | 72 | 45 | 4.0 | 10.0 | 0.00 | 0.00 | 0.00 | 24 | 904.7 |
| 20260508234036 | 73 | 68 | 5.0 | 12.0 | 0.00 | 0.00 | 0.00 | 24 | 904.7 |
| 20260508233036 | 74 | 68 | 2.0 | 9.0 | 0.00 | 0.00 | 0.00 | 25 | 904.7 |
| 20260508232017 | 74 | 68 | 3.0 | 9.0 | 0.00 | 0.00 | 0.00 | 24 | 904.8 |
| 20260508231018 | 74 | 68 | 3.0 | 8.0 | 0.00 | 0.00 | 0.00 | 25 | 904.8 |
| 20260508230017 | 74 | 113 | 5.0 | 13.0 | 0.00 | 0.00 | 0.00 | 23 | 904.8 |
| 20260508225017 | 75 | 113 | 4.0 | 9.0 | 0.00 | 0.00 | 0.00 | 24 | 904.8 |
| 20260508224017 | 75 | 113 | 3.0 | 7.0 | 0.00 | 0.00 | 0.00 | 24 | 904.8 |
| 20260508223018 | 75 | 113 | 4.0 | 10.0 | 0.00 | 0.00 | 0.00 | 25 | 904.8 |
| 20260508222017 | 75 | 45 | 2.0 | 9.0 | 0.00 | 0.00 | 0.00 | 25 | 904.8 |
| 20260508221018 | 75 | 338 | 3.0 | 11.0 | 0.00 | 0.00 | 0.00 | 24 | 904.8 |
| 20260508220017 | 74 | 68 | 2.0 | 6.0 | 0.00 | 0.00 | 0.00 | 24 | 904.8 |
| 20260508215017 | 74 | 68 | 3.0 | 5.0 | 0.00 | 0.00 | 0.00 | 24 | 904.8 |
| 20260508214017 | 73 | 68 | 5.0 | 14.0 | 0.00 | 0.00 | 0.00 | 25 | 904.8 |
| 20260508213037 | 73 | 113 | 2.0 | 4.0 | 0.00 | 0.00 | 0.00 | 25 | 904.8 |
| 20260508212037 | 73 | 68 | 3.0 | 9.0 | 0.00 | 0.00 | 0.00 | 24 | 904.8 |
| 20260508211017 | 74 | 90 | 3.0 | 9.0 | 0.00 | 0.00 | 0.00 | 24 | 904.8 |
| 20260508210016 | 74 | 113 | 2.0 | 7.0 | 0.00 | 0.00 | 0.00 | 23 | 904.8 |
| 20260508205017 | 73 | 90 | 3.0 | 7.0 | 0.00 | 0.00 | 0.00 | 25 | 904.8 |
| 20260508204017 | 73 | 90 | 3.0 | 9.0 | 0.00 | 0.00 | 0.00 | 24 | 904.8 |
| 20260508203016 | 72 | 90 | 3.0 | 7.0 | 0.00 | 0.00 | 0.00 | 27 | 904.8 |
| 20260508202017 | 72 | 90 | 2.0 | 7.0 | 0.00 | 0.00 | 0.00 | 25 | 904.8 |
| 20260508201037 | 71 | 90 | 3.0 | 6.0 | 0.00 | 0.00 | 0.00 | 24 | 904.7 |
| 20260508200016 | 72 | 45 | 3.0 | 9.0 | 0.00 | 0.00 | 0.00 | 25 | 904.8 |
| 20260508195016 | 71 | 45 | 4.0 | 12.0 | 0.00 | 0.00 | 0.00 | 25 | 904.7 |
| 20260508194037 | 72 | 90 | 4.0 | 12.0 | 0.00 | 0.00 | 0.00 | 24 | 904.7 |
| 20260508193036 | 71 | 0 | 4.0 | 11.0 | 0.00 | 0.00 | 0.00 | 24 | 904.7 |
| 20260508192016 | 72 | 90 | 4.0 | 10.0 | 0.00 | 0.00 | 0.00 | 23 | 904.7 |
| 20260508191017 | 72 | 90 | 3.0 | 8.0 | 0.00 | 0.00 | 0.00 | 23 | 904.7 |
| 20260508190016 | 72 | 68 | 3.0 | 7.0 | 0.00 | 0.00 | 0.00 | 25 | 904.7 |
| 20260508185016 | 71 | 68 | 5.0 | 10.0 | 0.00 | 0.00 | 0.00 | 23 | 904.6 |
| 20260508184017 | 72 | 68 | 5.0 | 13.0 | 0.00 | 0.00 | 0.00 | 23 | 904.7 |
| 20260508183016 | 71 | 90 | 4.0 | 14.0 | 0.00 | 0.00 | 0.00 | 23 | 904.6 |
| 20260508182017 | 72 | 68 | 4.0 | 13.0 | 0.00 | 0.00 | 0.00 | 23 | 904.7 |
| 20260508181016 | 72 | 45 | 4.0 | 10.0 | 0.00 | 0.00 | 0.00 | 22 | 904.7 |
| 20260508180016 | 71 | 90 | 4.0 | 8.0 | 0.00 | 0.00 | 0.00 | 23 | 904.6 |